This is the latest recevied weather packets stored in our database for station/object EFTP. If no packets are shown the sender has not sent any weather packets the latest 10 day(s).
| Time | Temp. | Humidity | Pressure | Rain* | Wind** | Luminosity | Snow |
|---|---|---|---|---|---|---|---|
| 1777890433 | 8.33° C | 40% | 1002.7 hPa | - | - | - | - |
| 1777889233 | 7.78° C | 39% | 1003 hPa | - | - | - | - |
| 1777888032 | 7.78° C | 39% | 1003.4 hPa | - | - | - | - |
| 1777886833 | 8.33° C | 42% | 1003.7 hPa | - | - | - | - |
| 1777885633 | 7.22° C | 49% | 1003.8 hPa | - | - | - | - |
| 1777884432 | 6.67° C | 50% | 1003.9 hPa | - | - | - | - |
| 1777883233 | 6.67° C | 53% | 1004 hPa | - | - | - | - |
| 1777882033 | 6.67° C | 51% | 1003.9 hPa | - | - | - | - |
| 1777880833 | 6.67° C | 47% | 1004.1 hPa | - | - | - | - |
| 1777879633 | 6.67° C | 51% | 1004.1 hPa | - | - | - | - |
| 1777878432 | 6.67° C | 56% | 1004.4 hPa | - | - | - | - |
| 1777877233 | 6.11° C | 56% | 1004.5 hPa | - | - | - | - |
| 1777876032 | 6.11° C | 59% | 1004.7 hPa | - | - | - | - |
| 1777874832 | 5.56° C | 60% | 1004.8 hPa | - | - | - | - |
| 1777873632 | 4.44° C | 62% | 1005.1 hPa | - | - | - | - |
| 1777872432 | 4.44° C | 68% | 1005.3 hPa | - | - | - | - |
| 1777871232 | 3.89° C | 67% | 1005.5 hPa | - | - | - | - |
| 1777870032 | 3.33° C | 69% | 1005.7 hPa | - | - | - | - |
| 1777868832 | 2.78° C | 73% | 1005.9 hPa | - | - | - | - |
| 1777867632 | 2.78° C | 73% | 1006.2 hPa | - | - | - | - |
| 1777866432 | 2.22° C | 74% | 1006.3 hPa | - | - | - | - |
| 1777865233 | 1.11° C | 82% | 1006.5 hPa | - | - | - | - |
| 1777864032 | 0.56° C | 79% | 1006.7 hPa | - | - | - | - |
| 1777862831 | 0.56° C | 75% | 1006.9 hPa | - | - | - | - |
| 1777861632 | -0.56° C | 84% | 1007 hPa | - | - | - | - |
* Rain since midnight (hover to see other rain measurements)
** Current wind speed in m/s (hover to see current wind gust speed)